Flag Weather past 2 weeks in Nizhny Novgorod, Russia

Now
23 °F

Ice fog.


Feels Like: 23 °F
Forecast: 14 / 19 °F
Wind: 1 mph from North

Location: Nizhny Novgorod/Strigino

Current Time: Nov 27, 2014 at 7:44:21 AM

Latest Report: Nov 27, 2014 at 7:00 AM


Visibility: 3 mi

Pressure: 30.45 "Hg

Humidity: 93%

Dew point: 21 °F

Location of Nizhny NovgorodLocation

Historic Weather in Nizhny Novgorod — Graph

°F

Nizhny Novgorod temperature yesterday

Maximum temperature yesterday: 23 °F (at 2:30 PM)
Minimum temperature yesterday: 18 °F (at 12:30 AM)
Average temperature yesterday: 20 °F

Past Weeks' High & Low Weather Summary

 TemperatureHumidityPressure
High43 °F (Nov 12, 12:00 PM)100% (Nov 13, 7:00 AM)30.80 "Hg (Nov 13, 7:00 AM)
Low10 °F (Nov 17, 6:00 AM)48% (Nov 14, 3:00 PM)30.27 "Hg (Nov 12, 9:00 PM)
Average24 °F83%30.52 "Hg
* Reported Nov 12 6:30 AM — Nov 27 6:30 AM, Nizhny Novgorod, Weather by CustomWeather, © 2014

Note: Actual official high and low records may vary slightly from our data, if they occured in-between our weather recording intervals... More about our weather records

Advertising

Nizhny Novgorod weather history for previous 24 hours

 ConditionsComfort  
Time TempWeatherWind HumidityBarometerVisibility
6:30 AM
Nov 27
21 °FIce fog.No wind100%30.45 "Hg3 mi
6:00 AM21 °FLight freezing rain. Ice fog.1 mph100%30.45 "Hg3 mi
5:30 AM21 °FLight freezing rain. Ice fog.1 mph93%30.45 "Hg3 mi
5:00 AM21 °FLight freezing rain. Ice fog.3 mph93%30.45 "Hg3 mi
4:30 AM21 °FLight freezing rain. Ice fog.1 mph93%30.45 "Hg3 mi
4:00 AM21 °FLight freezing rain. Ice fog.3 mph93%30.45 "Hg2 mi
3:30 AM21 °FLight freezing rain. Ice fog.3 mph93%30.45 "Hg2 mi
2:30 AM21 °FLight freezing rain. Ice fog.3 mph93%30.45 "Hg2 mi
2:00 AM21 °FLight freezing rain. Ice fog.3 mph93%30.45 "Hg2 mi
1:30 AM21 °FLight freezing rain. Ice fog.3 mph93%30.45 "Hg1 mi
1:00 AM21 °FLight freezing rain. Ice fog.3 mph93%30.45 "Hg2 mi
12:30 AM21 °FLight freezing rain. Ice fog.1 mph93%30.45 "Hg2 mi
12:00 AM21 °FLight freezing rain. Ice fog.1 mph93%30.45 "Hg2 mi
11:30 PM
Nov 26
21 °FLight freezing rain. Ice fog.1 mph93%30.45 "Hg1 mi
11:00 PM21 °FLight freezing rain. Ice fog.1 mph93%30.42 "Hg2 mi
10:30 PM21 °FLight freezing rain. Ice fog.1 mph93%30.42 "Hg1 mi
10:00 PM19 °FLight freezing rain. Ice fog.3 mph100%30.42 "Hg2 mi
9:30 PM21 °FLight freezing rain. Ice fog.3 mph93%30.42 "Hg2 mi
9:00 PM21 °FLight freezing rain. Ice fog.3 mph93%30.42 "Hg2 mi
8:30 PM21 °FLight freezing rain. Ice fog.3 mph93%30.42 "Hg2 mi
8:00 PM21 °FLight freezing rain. Ice fog.1 mph93%30.42 "Hg2 mi
7:30 PM21 °FLight freezing rain. Ice fog.3 mph93%30.42 "Hg2 mi
7:00 PM21 °FLight freezing rain. Ice fog.3 mph100%30.42 "Hg2 mi
6:30 PM21 °FLight freezing rain. Ice fog.3 mph100%30.42 "Hg2 mi
6:00 PM21 °FIce fog.3 mph100%30.42 "Hg2 mi
5:30 PM21 °FIce fog.6 mph100%30.42 "Hg2 mi
5:00 PM23 °FIce fog.6 mph93%30.42 "Hg2 mi
4:30 PM23 °FIce fog.3 mph93%30.42 "Hg3 mi
4:00 PM23 °FIce fog.3 mph93%30.42 "Hg3 mi
3:30 PM23 °FIce fog.3 mph93%30.42 "Hg3 mi
3:00 PM23 °FIce fog.3 mph93%30.42 "Hg3 mi
2:30 PM23 °FSnow flurries. Ice fog.3 mph93%30.45 "Hg3 mi
2:00 PM21 °FSnow flurries. Ice fog.3 mph100%30.45 "Hg3 mi
1:30 PM21 °FSnow flurries. Ice fog.3 mph100%30.45 "Hg3 mi
1:00 PM21 °FSnow flurries. Ice fog.6 mph93%30.45 "Hg3 mi
12:30 PM21 °FLight freezing rain. Ice fog.3 mph93%30.45 "Hg2 mi
12:00 PM21 °FLight freezing rain. Ice fog.3 mph93%30.45 "Hg3 mi
11:30 AM21 °FLight freezing rain. Ice fog.6 mph93%30.45 "Hg3 mi
11:00 AM21 °FLight freezing rain. Ice fog.3 mph93%30.45 "Hg3 mi
10:30 AM21 °FLight freezing rain. Ice fog.3 mph93%30.45 "Hg3 mi
10:00 AM19 °FLight freezing rain. Ice fog.6 mph100%30.45 "Hg3 mi
9:30 AM19 °FLight freezing rain. Ice fog.3 mph93%30.45 "Hg3 mi
9:00 AM19 °FLight freezing rain. Ice fog.3 mph93%30.45 "Hg3 mi
8:30 AM19 °FLight freezing rain. Ice fog.3 mph93%30.45 "Hg3 mi
8:00 AM19 °FLight freezing rain. Ice fog.1 mph93%30.45 "Hg3 mi
7:30 AM19 °FIce fog.3 mph93%30.45 "Hg3 mi
7:00 AM19 °FIce fog.3 mph93%30.45 "Hg3 mi
Weather by CustomWeather, © 2014

See weather overviewHow to use our weather pages